Location: Ostrava
(49.8330°N, 18.2830°E)
Time: 02:37:13
(UTC+01:00)

Vanguard 2 Rocket - Visible Passes

Search period start: 13 December 2017 00:00
Search period end: 23 December 2017 00:00
Orbit: 555 x 3326 km, 32.9° (Epoch: 11 December)

Date Brightness Start Highest point End Pass type
(mag) Time Alt. Az. Time Alt. Az. Time Alt. Az.
13 Dec 10.1 17:19:43 10° S 17:27:15 18° SE 17:35:51 11° ESE visible
13 Dec 9.7 19:28:02 10° SW 19:40:18 38° SSE 19:41:39 37° SSE visible
13 Dec 10.1 21:40:25 10° WSW 21:47:26 31° SW 21:47:26 31° SW visible
14 Dec 10.3 16:26:04 10° SE 16:28:06 10° SE 16:30:17 10° ESE visible
14 Dec 9.8 18:29:38 10° SSW 18:40:05 31° SSE 18:45:25 26° ESE visible
14 Dec 9.7 20:40:49 10° WSW 20:51:13 41° SSW 20:51:13 41° SSW visible
14 Dec 10.6 22:54:43 10° WSW 22:57:01 16° WSW 22:57:01 16° WSW visible
15 Dec 9.9 17:31:55 10° S 17:40:22 23° SE 17:49:11 14° ESE visible
15 Dec 9.6 19:41:41 10° SW 19:53:52 40° SSE 19:54:59 40° SSE visible
15 Dec 10.2 21:54:33 10° WSW 22:00:47 28° SW 22:00:47 28° SW visible
16 Dec 10.1 16:35:22 10° SSE 16:41:05 16° SE 16:48:20 10° ESE visible
16 Dec 9.6 18:43:02 10° SW 18:53:32 35° SSE 18:58:45 30° SE visible
16 Dec 9.7 20:54:51 10° WSW 21:04:33 39° SSW 21:04:33 39° SSW visible
16 Dec 10.7 23:09:11 10° W 23:10:21 13° WSW 23:10:21 13° WSW visible
17 Dec 9.7 17:44:55 10° SSW 17:53:41 28° SSE 18:02:31 17° ESE visible
17 Dec 9.6 19:55:37 10° WSW 20:07:34 41° S 20:08:19 41° SSE visible
17 Dec 10.3 22:08:53 10° WSW 22:14:07 24° WSW 22:14:07 24° WSW visible
18 Dec 9.8 16:47:30 10° S 16:54:18 20° SE 17:03:38 10° ESE visible
18 Dec 9.5 18:56:48 10° SW 19:07:11 38° SSE 19:12:05 32° SE visible
18 Dec 9.8 21:09:05 10° WSW 21:17:53 36° SW 21:17:53 36° SW visible
19 Dec 9.5 17:58:24 10° SW 18:07:13 32° SSE 18:15:52 19° ESE visible
19 Dec 9.6 20:09:45 10° WSW 20:21:22 40° S 20:21:40 40° S visible
19 Dec 10.4 22:23:27 10° WSW 22:27:28 20° WSW 22:27:28 20° WSW visible
20 Dec 9.6 17:00:32 10° SSW 17:07:42 25° SSE 17:18:12 10° ESE visible
20 Dec 9.5 19:10:48 10° SW 19:20:58 38° S 19:25:29 33° SE visible
20 Dec 9.9 21:23:31 10° WSW 21:31:17 31° SW 21:31:17 31° SW visible
21 Dec 9.4 18:12:14 10° SW 18:20:56 34° SSE 18:29:19 20° ESE visible
21 Dec 9.6 20:24:04 10° WSW 20:35:08 37° S 20:35:08 37° S visible
21 Dec 10.5 22:38:27 10° WSW 22:40:56 15° WSW 22:40:56 15° WSW visible
22 Dec 9.5 17:14:05 10° SSW 17:21:20 28° SSE 17:32:22 10° ESE visible
22 Dec 9.5 19:25:01 10° WSW 19:34:51 37° S 19:39:00 32° SSE visible
22 Dec 10.1 21:38:14 10° WSW 21:44:49 25° SW 21:44:49 25° SW visible
